TimeEET,TemperatureF,Dew PointF,Humidity,Sea Level PressureIn,VisibilityMPH,Wind Direction,Wind SpeedMPH,Gust SpeedMPH,PrecipitationIn,Events,Conditions,WindDirDegrees,DateUTC
12:20 AM,55.4,53.6,94,30.01,6.2,Calm,Calm,-,N/A,,Partly Cloudy,0,2012-11-17 22:20:00
12:50 AM,53.6,51.8,94,30.01,6.2,Calm,Calm,-,N/A,,Partly Cloudy,0,2012-11-17 22:50:00
1:20 AM,53.6,51.8,94,30.01,6.2,Calm,Calm,-,N/A,,Partly Cloudy,0,2012-11-17 23:20:00
1:50 AM,53.6,51.8,94,30.01,6.2,Calm,Calm,-,N/A,,Partly Cloudy,0,2012-11-17 23:50:00
2:00 AM,54,52,92,30.02,6,Calm,Calm,,,,Scattered Clouds,,2012-11-18 00:00:00
2:20 AM,53.6,51.8,94,30.01,6.2,Calm,Calm,-,N/A,,Partly Cloudy,0,2012-11-18 00:20:00
2:50 AM,53.6,51.8,94,30.01,6.2,Calm,Calm,-,N/A,,Partly Cloudy,0,2012-11-18 00:50:00
3:20 AM,53.6,51.8,94,30.01,6.2,Calm,Calm,-,N/A,,Partly Cloudy,0,2012-11-18 01:20:00
3:50 AM,53.6,51.8,94,30.01,6.2,Calm,Calm,-,N/A,,Partly Cloudy,0,2012-11-18 01:50:00
4:20 AM,53.6,51.8,94,30.01,6.2,Calm,Calm,-,N/A,,Partly Cloudy,0,2012-11-18 02:20:00
4:50 AM,51.8,50.0,94,30.01,6.2,Calm,Calm,-,N/A,,Partly Cloudy,0,2012-11-18 02:50:00
5:20 AM,51.8,50.0,94,30.01,6.2,Calm,Calm,-,N/A,,Partly Cloudy,0,2012-11-18 03:20:00
5:50 AM,51.8,48.2,88,30.01,6.2,Calm,Calm,-,N/A,,Partly Cloudy,0,2012-11-18 03:50:00
6:20 AM,51.8,48.2,88,30.01,6.2,Calm,Calm,-,N/A,,Partly Cloudy,0,2012-11-18 04:20:00
6:50 AM,50.0,48.2,94,30.01,-9999.0,Calm,Calm,-,N/A,,Clear,0,2012-11-18 04:50:00
7:20 AM,50.0,48.2,94,30.01,-9999.0,Calm,Calm,-,N/A,,Clear,0,2012-11-18 05:20:00
7:50 AM,50.0,50.0,100,30.01,-9999.0,Calm,Calm,-,N/A,,Clear,0,2012-11-18 05:50:00
8:00 AM,50,50,100,30.01,12,Calm,Calm,,,,Clear,,2012-11-18 06:00:00
8:20 AM,50.0,50.0,100,30.01,-9999.0,Calm,Calm,-,N/A,,Clear,0,2012-11-18 06:20:00
8:50 AM,51.8,51.8,100,30.01,-9999.0,Calm,Calm,-,N/A,,Clear,0,2012-11-18 06:50:00
9:20 AM,53.6,53.6,100,30.01,-9999.0,Calm,Calm,-,N/A,,Clear,0,2012-11-18 07:20:00
9:50 AM,59.0,55.4,88,30.01,-9999.0,Calm,Calm,-,N/A,,Clear,0,2012-11-18 07:50:00
10:20 AM,60.8,57.2,88,30.01,-9999.0,Calm,Calm,-,N/A,,Clear,0,2012-11-18 08:20:00
10:50 AM,62.6,53.6,72,30.01,-9999.0,Calm,Calm,-,N/A,,Clear,0,2012-11-18 08:50:00
11:20 AM,64.4,53.6,68,30.01,-9999.0,Calm,Calm,-,N/A,,Clear,0,2012-11-18 09:20:00
11:50 AM,68.0,53.6,60,30.01,6.2,South,4.6,-,N/A,,Mostly Cloudy,170,2012-11-18 09:50:00
12:20 PM,69.8,53.6,56,30.01,6.2,SSE,4.6,-,N/A,,Mostly Cloudy,150,2012-11-18 10:20:00
12:50 PM,69.8,53.6,56,30.01,6.2,SE,4.6,-,N/A,,Mostly Cloudy,130,2012-11-18 10:50:00
1:20 PM,69.8,53.6,56,30.01,6.2,SSE,4.6,-,N/A,,Mostly Cloudy,150,2012-11-18 11:20:00
1:50 PM,66.2,55.4,68,29.98,6.2,SE,4.6,-,N/A,,Mostly Cloudy,130,2012-11-18 11:50:00
2:00 PM,67,55,57,29.99,12,SE,4.6,,,,Scattered Clouds,130,2012-11-18 12:00:00
2:20 PM,66.2,55.4,68,29.98,6.2,Calm,Calm,-,N/A,,Mostly Cloudy,0,2012-11-18 12:20:00
2:50 PM,68.0,55.4,64,29.98,6.2,Calm,Calm,-,N/A,,Mostly Cloudy,0,2012-11-18 12:50:00
3:20 PM,69.8,55.4,60,29.98,6.2,Calm,Calm,-,N/A,,Mostly Cloudy,0,2012-11-18 13:20:00
3:50 PM,71.6,55.4,57,29.98,6.2,SE,8.1,-,N/A,,Scattered Clouds,130,2012-11-18 13:50:00
4:20 PM,71.6,55.4,57,29.98,6.2,ESE,5.8,-,N/A,,Scattered Clouds,110,2012-11-18 14:20:00
4:50 PM,68.0,59.0,73,29.98,6.2,East,4.6,-,N/A,,Scattered Clouds,100,2012-11-18 14:50:00
5:20 PM,66.2,59.0,78,29.98,6.2,SSE,6.9,-,N/A,,Scattered Clouds,160,2012-11-18 15:20:00
5:50 PM,64.4,59.0,83,29.98,6.2,South,6.9,-,N/A,,Scattered Clouds,170,2012-11-18 15:50:00
6:20 PM,64.4,57.2,77,29.98,6.2,South,5.8,-,N/A,,Scattered Clouds,170,2012-11-18 16:20:00
6:50 PM,64.4,53.6,68,29.98,6.2,South,5.8,-,N/A,,Mostly Cloudy,170,2012-11-18 16:50:00
7:20 PM,64.4,53.6,68,29.98,6.2,South,4.6,-,N/A,,Mostly Cloudy,180,2012-11-18 17:20:00
7:50 PM,62.6,57.2,82,29.98,6.2,Calm,Calm,-,N/A,,Mostly Cloudy,0,2012-11-18 17:50:00
8:00 PM,63,57,76,29.99,6,Calm,Calm,,,,Scattered Clouds,,2012-11-18 18:00:00
8:20 PM,62.6,57.2,82,29.98,6.2,Calm,Calm,-,N/A,,Mostly Cloudy,0,2012-11-18 18:20:00
8:50 PM,62.6,57.2,82,29.98,6.2,Calm,Calm,-,N/A,,Mostly Cloudy,0,2012-11-18 18:50:00
9:20 PM,64.4,57.2,77,29.98,6.2,ESE,8.1,-,N/A,,Mostly Cloudy,120,2012-11-18 19:20:00
9:50 PM,64.4,53.6,68,29.98,6.2,ESE,9.2,-,N/A,,Mostly Cloudy,110,2012-11-18 19:50:00
10:20 PM,64.4,53.6,68,29.98,6.2,ESE,9.2,-,N/A,,Mostly Cloudy,110,2012-11-18 20:20:00
10:50 PM,64.4,53.6,68,29.98,6.2,ESE,9.2,-,N/A,,Mostly Cloudy,120,2012-11-18 20:50:00
11:20 PM,64.4,53.6,68,29.98,6.2,ESE,9.2,-,N/A,,Mostly Cloudy,120,2012-11-18 21:20:00
11:50 PM,62.6,55.4,77,29.98,6.2,ESE,9.2,-,N/A,,Mostly Cloudy,120,2012-11-18 21:50:00